Temp
20 19 19 18 18 19 19 19 19 19 19 18 18 18 18 18 17 17 17 17 17 17 16 16 16 17 18 18 19 19 19 20 19 18 17 17 18 18 19 18 18 18 18
20 19 19 19 19 19 19 19 19 19 18 18 18 18 18 18 17 17 17 17 16 16 16 16 16 17 18 18 18 19 19 20 19 18 18 18 17 18 18 18 18 18 18
20 19 19 19 19 19 19 19 19 19 18 18 18 18 18 18 17 17 17 17 16 16 16 16 16 17 18 18 18 19 19 20 20 18 18 17 16 17 17 17 18 17 17
20 19 18 19 19 18 19 19 19 18 18 17 18 18 18 17 17 17 17 16 16 16 16 16 18 18 18 19 19 19 20 20 21 20 19 18 17 16 17 16 17 17 17
20 19 19 19 19 18 18 18 18 18 17 17 18 18 17 17 17 17 16 16 16 16 16 17 18 18 18 19 19 20 21 21 22 20 20 19 17 16 16 17 17 17 17
21 18 19 18 18 18 18 18 18 18 17 18 18 18 17 17 17 16 16 17 16 17 17 18 18 18 18 19 19 20 20 21 21 20 19 19 16 16 15 15 16 17 17
19 19 18 19 19 18 18 18 18 18 17 18 18 18 17 17 17 17 17 17 17 17 17 17 17 17 18 18 18 19 19 20 20 20 19 19 17 16 15 15 16 16 16
18 18 17 18 18 18 18 17 17 17 17 18 18 17 17 17 17 17 17 17 17 17 17 17 17 18 18 18 18 18 19 19 20 20 18 17 17 16 15 15 15 15 16
17 17 17 17 17 17 18 18 17 17 18 18 18 17 17 17 17 17 17 17 17 17 17 17 18 18 18 18 18 19 19 19 19 19 18 17 17 16 14 14 14 15 15
16 17 17 17 17 17 17 17 17 17 17 17 17 18 18 18 17 17 17 17 17 17 17 17 18 18 17 17 17 18 18 18 19 19 18 17 17 17 14 14 14 14 14
16 16 17 17 17 18 18 17 17 17 17 18 18 18 18 18 17 17 17 18 17 17 17 17 18 18 17 17 17 17 17 17 18 18 18 17 17 16 14 13 13 13 13
16 18 19 18 18 18 17 17 18 18 18 18 18 18 18 18 18 18 18 18 18 18 17 17 18 17 16 17 16 16 16 16 17 17 17 16 16 15 14 12 12 12 12
17 19 20 20 20 19 19 18 18 18 18 18 18 18 18 19 18 18 18 18 18 18 17 18 18 17 16 16 16 16 16 15 15 16 16 15 15 14 14 12 11 11 11
21 20 19 19 20 20 19 20 19 19 19 18 18 18 18 18 18 18 19 18 18 18 18 17 16 16 16 16 16 16 16 15 15 15 15 15 14 14 13 12 11 10 10
21 20 19 19 19 20 20 19 19 19 17 18 17 17 18 18 18 18 18 18 17 17 17 16 15 15 15 15 15 15 15 15 15 15 15 14 14 13 12 11 10 10 9
21 20 19 19 19 20 20 19 18 17 17 16 17 16 17 17 17 16 17 17 17 16 15 15 14 15 14 14 14 14 14 14 14 14 14 14 14 12 12 11 9 9 9
21 20 19 19 19 19 18 18 17 17 17 17 15 16 15 16 16 16 16 16 16 15 14 14 14 14 14 13 13 14 14 13 13 14 14 14 14 12 11 11 10 10 10
22 20 20 19 18 17 17 17 18 18 15 15 15 15 14 15 15 15 15 15 15 14 14 13 13 13 13 13 13 13 13 12 12 13 13 13 13 12 12 11 10 9 9
22 21 20 19 17 17 17 16 15 16 15 15 15 16 14 14 14 15 14 14 13 14 14 13 12 12 12 12 12 12 12 12 12 12 13 13 13 12 11 11 10 9 9
22 20 20 17 16 17 16 15 15 16 17 16 14 14 14 14 14 14 14 13 13 13 13 12 11 11 11 11 11 10 11 11 11 11 12 12 11 11 11 10 9 9 8
21 20 19 17 15 16 15 16 16 15 15 14 14 14 14 14 14 14 14 13 13 13 12 12 11 11 10 10 9 9 10 10 10 11 10 10 10 10 9 9 9 8 8
21 20 18 17 16 16 17 17 17 16 15 15 15 14 14 14 14 13 13 13 12 12 12 12 11 10 10 10 9 9 7 9 10 9 9 9 9 9 9 8 8 8 7
21 19 18 17 16 17 18 18 17 17 16 16 15 14 14 14 13 13 12 12 12 11 11 11 10 10 9 9 9 9 7 6 8 9 9 9 8 8 8 8 7 7 7
19 19 18 17 17 18 19 18 18 17 17 16 16 15 14 13 13 13 13 12 11 11 11 10 10 10 9 9 9 8 8 8 6 5 8 7 7 7 7 7 7 6 6
19 18 18 18 18 19 19 18 18 18 17 16 16 14 14 13 13 13 13 12 11 11 10 10 10 10 9 8 8 7 7 7 7 6 4 5 6 6 6 6 5 5 6
19 18 19 19 19 19 18 18 18 18 17 16 15 15 15 14 14 13 12 11 10 10 10 9 9 9 8 8 7 6 6 5 5 5 4 4 4 5 5 4 5 5 5
Height
794 797 801 806 811 814 816 819 821 823 826 828 829 831 833 834 835 837 838 839 838 839 840 840 840 841 840 840 840 839 838 838 838 839 840 841 839 840 837 837 837 835 834
789 795 801 807 813 816 818 820 823 826 828 829 832 834 835 837 838 840 842 842 843 843 843 843 843 845 843 842 841 841 841 839 842 842 842 842 842 839 838 838 838 837 837
791 795 803 809 813 817 820 822 823 828 830 833 834 835 838 840 842 843 844 846 846 847 846 847 846 847 846 846 846 845 843 842 840 843 846 844 844 841 840 841 839 839 839
792 798 805 810 814 819 820 824 825 830 833 835 837 839 840 842 843 845 848 848 849 849 849 849 849 848 848 847 847 846 846 845 842 842 844 846 846 843 844 844 842 841 841
796 799 807 813 816 819 824 825 827 833 834 838 840 842 844 845 846 847 850 851 852 852 852 852 852 852 852 851 850 849 848 846 845 846 845 845 848 848 847 846 845 843 842
798 802 810 816 814 818 827 830 831 835 838 839 841 844 846 848 850 851 852 853 853 854 854 855 854 856 856 855 853 852 852 848 848 848 846 848 850 851 850 847 847 845 843
798 805 812 815 816 820 826 832 834 836 840 840 843 846 848 850 853 855 855 855 856 856 858 857 858 858 858 859 856 855 855 852 851 850 848 849 852 853 851 849 848 846 844
801 805 812 816 823 821 829 835 837 841 841 844 845 848 851 853 855 859 858 858 858 859 858 861 861 860 860 860 859 859 857 855 854 853 851 851 852 853 852 852 850 847 845
804 812 812 820 822 826 831 836 841 844 844 845 847 851 854 856 859 861 860 860 861 860 860 863 862 862 862 861 859 860 859 857 856 854 852 851 852 852 853 852 851 848 846
810 816 820 824 827 828 832 838 843 845 847 847 849 853 856 857 861 862 862 862 862 863 863 864 863 865 865 862 861 861 860 858 857 856 854 852 852 852 852 851 850 850 848
815 819 823 826 828 828 834 841 845 848 848 850 852 854 856 859 860 861 862 862 862 865 864 864 865 865 865 864 863 862 861 860 858 858 854 853 852 851 851 852 850 848 848
811 818 823 824 826 829 835 840 846 847 849 852 853 854 859 862 861 860 862 862 862 863 864 864 865 865 865 864 863 862 862 861 860 858 854 852 852 851 850 851 850 848 847
817 821 822 825 828 831 836 841 844 847 850 853 856 855 857 859 859 859 860 861 863 862 863 865 865 865 864 863 864 862 861 861 860 858 854 852 852 851 849 849 850 849 847
815 819 822 826 830 833 837 841 843 847 850 851 853 855 856 857 858 858 858 861 863 864 864 865 864 864 864 863 862 862 861 860 859 857 854 850 851 850 849 849 848 848 847
816 819 823 827 831 835 837 840 842 848 849 852 855 852 852 854 855 855 856 860 861 862 861 861 863 866 864 862 862 861 860 859 858 856 854 850 851 849 847 849 849 846 847
816 821 825 828 833 836 836 840 844 849 850 851 850 851 854 852 856 858 856 858 860 861 861 863 863 865 864 861 860 859 859 858 856 855 852 850 849 849 847 847 849 847 846
815 820 826 831 834 834 837 840 842 845 847 848 849 847 853 852 853 856 855 857 860 860 862 863 863 863 863 861 859 859 858 856 855 853 851 850 846 847 846 846 847 846 845
815 822 826 829 831 833 836 839 839 841 846 843 848 846 852 853 853 855 856 857 860 861 862 862 863 863 862 861 857 857 855 854 852 851 850 849 846 846 845 845 845 844 843
810 817 823 826 829 832 836 837 839 838 843 843 846 843 850 852 854 856 856 858 860 862 862 862 863 862 861 858 856 855 854 853 852 849 848 846 844 844 845 843 842 842 843
807 814 823 826 827 832 835 838 839 840 838 843 845 846 850 852 855 856 858 859 860 861 862 862 862 861 860 857 855 854 853 852 850 848 844 845 843 842 842 842 841 841 841
807 814 820 824 829 831 836 837 837 839 841 844 846 849 851 853 855 857 859 859 860 861 861 861 859 859 858 857 854 852 851 850 848 847 845 844 843 841 840 841 840 839 838
806 811 817 823 827 831 834 835 837 838 841 844 846 849 851 853 855 857 858 859 859 860 860 859 858 857 856 855 854 852 848 848 846 844 843 843 842 841 840 839 838 837 835
804 809 814 822 826 827 831 833 835 837 840 843 845 848 850 852 854 856 857 858 858 858 857 857 856 855 854 854 855 854 850 848 844 844 843 842 841 840 838 837 837 836 835
802 807 812 818 822 825 828 830 833 835 838 839 841 845 847 850 853 854 855 855 855 855 855 854 854 853 852 851 851 851 850 847 843 840 841 841 840 839 838 836 834 833 833
802 808 812 814 817 822 825 829 831 833 835 838 841 844 848 850 851 852 852 852 853 853 853 852 851 850 849 849 848 847 846 846 843 840 837 838 838 838 836 834 833 832 830
802 805 808 813 816 819 824 827 829 831 834 838 841 844 846 848 851 851 849 850 850 850 850 849 849 848 847 846 846 845 845 845 845 842 840 838 837 835 835 833 832 830 828
Wind_Speed
27 26 26 25 24 23 23 22 21 19 18 17 16 16 16 17 18 18 19 19 21 20 20 20 20 19 19 19 18 17 15 13 11 10 13 11 13 14 15 13 14 12 12
33 29 27 27 25 24 23 22 20 18 17 17 17 17 18 18 18 18 18 19 21 20 19 19 19 18 20 20 19 17 14 11 11 9 10 14 15 16 16 13 12 12 10
33 30 28 27 25 23 22 20 19 17 16 17 18 18 18 18 18 18 18 19 20 20 20 19 19 20 20 20 19 17 15 11 11 8 7 17 19 20 20 18 13 13 13
30 29 26 26 25 23 21 19 19 17 17 17 18 18 18 18 17 17 18 19 19 19 20 21 22 23 24 23 19 16 16 14 13 17 18 20 19 20 16 15 15 11 11
29 27 27 25 24 22 19 19 19 17 18 18 18 18 17 17 17 18 18 18 18 18 19 21 23 24 24 25 24 20 20 24 16 19 13 14 17 16 15 14 13 13 12
26 24 27 24 24 20 17 17 18 18 18 18 18 17 16 16 16 16 17 17 18 18 19 20 21 21 21 23 24 22 20 22 22 18 15 15 16 14 14 13 13 13 13
27 27 26 22 21 21 18 16 18 18 17 18 18 16 16 16 16 16 16 17 16 17 17 17 17 18 20 22 23 22 22 21 21 14 15 18 14 14 14 14 13 13 12
25 29 25 22 21 21 18 18 17 17 17 17 17 16 16 16 15 14 14 15 15 15 16 15 16 17 19 20 22 19 20 22 21 17 15 17 16 15 14 13 13 13 13
27 23 23 22 21 21 21 18 17 16 17 17 17 17 16 14 13 11 11 11 11 11 12 12 13 13 14 17 21 17 21 20 19 17 12 17 18 16 15 14 13 11 11
25 18 22 23 23 23 22 19 17 16 16 17 17 15 14 13 11 9 8 7 8 7 7 9 10 10 13 11 21 17 19 17 19 19 13 17 18 19 15 14 14 13 11
25 22 20 22 22 22 21 18 16 16 16 16 15 13 13 9 9 6 5 5 6 5 7 9 10 10 16 16 16 16 18 18 21 18 15 15 19 19 15 14 14 12 12
30 22 18 21 23 20 18 18 17 18 17 14 11 7 5 5 7 2 3 3 5 6 5 7 9 10 12 12 13 14 16 17 19 18 18 19 17 19 14 12 13 13 13
27 23 22 24 20 23 19 19 16 17 15 11 7 7 8 5 3 1 1 2 2 4 5 8 6 8 9 12 11 14 16 15 17 17 20 16 19 17 14 10 11 13 15
24 25 22 21 15 22 18 19 17 17 18 13 9 6 3 4 6 4 3 4 3 7 7 8 9 8 12 13 14 15 17 18 17 19 16 20 21 15 13 10 9 12 14
22 22 20 21 18 20 18 19 21 14 15 9 8 6 7 9 6 5 4 4 5 2 3 5 11 14 15 16 18 19 20 18 20 22 16 15 22 12 10 9 9 11 14
22 23 22 20 20 19 18 17 16 13 12 8 5 4 4 4 3 4 6 2 1 3 9 12 11 14 15 17 18 20 20 19 21 21 16 15 19 10 7 9 10 13 16
24 24 24 24 22 21 21 19 16 14 10 6 4 3 2 4 5 4 4 2 3 8 8 7 11 13 15 16 18 18 18 17 20 21 18 19 13 7 10 10 14 15 19
27 26 25 22 23 24 21 18 16 12 5 7 3 7 5 4 5 5 1 3 5 7 6 7 10 13 15 17 18 19 17 21 22 19 19 18 9 8 15 7 12 17 18
26 24 22 22 26 26 22 17 10 7 5 5 3 5 5 5 4 3 6 5 3 4 5 5 9 13 16 18 19 20 21 19 22 24 19 16 11 5 9 12 15 19 17
27 26 20 22 22 23 18 9 5 4 1 2 6 6 8 6 6 6 3 1 3 4 4 8 9 11 14 17 18 19 21 17 22 21 21 11 6 10 12 14 15 14 18
28 25 24 21 16 18 12 8 5 7 10 10 9 9 7 6 6 5 3 2 2 4 7 8 8 11 12 15 20 20 18 19 21 18 19 22 19 13 12 16 17 19 16
26 25 26 24 19 16 14 9 10 12 11 10 11 9 9 8 6 3 2 1 3 5 9 9 10 12 13 14 19 17 5 14 15 24 23 19 18 20 16 17 21 17 15
22 27 26 22 16 18 16 15 15 14 13 13 11 10 10 8 5 2 1 2 4 6 10 12 13 13 10 15 14 15 5 4 17 15 17 22 20 20 20 16 17 17 16
20 23 23 21 20 22 19 17 18 16 15 16 15 16 13 9 5 3 4 5 7 8 11 13 13 16 15 14 15 13 17 19 5 7 9 17 20 21 21 20 20 19 21
19 19 21 24 26 20 17 17 17 10 14 10 10 10 7 5 7 7 7 5 7 9 12 16 19 17 12 14 14 16 16 19 17 7 5 11 20 20 20 21 25 25 22
22 26 27 24 20 17 14 9 12 10 11 12 9 8 4 3 3 4 4 7 11 14 14 16 18 17 15 18 19 13 14 10 13 15 5 12 15 20 21 24 23 25 24
Wind_Direction
135 142 144 145 144 141 133 127 122 116 111 104 98 92 88 86 85 82 78 74 71 68 64 59 57 54 52 50 48 47 51 60 72 80 82 65 61 57 58 52 49 42 39
138 141 145 145 144 139 132 127 119 112 110 104 101 96 93 91 87 82 78 75 73 68 64 61 60 56 56 53 52 53 54 60 70 75 78 63 57 56 49 41 38 36 34
134 142 144 144 142 137 132 127 119 117 111 106 104 100 96 92 86 82 78 77 74 68 66 63 61 59 55 52 50 50 47 39 26 44 83 66 55 53 49 43 43 46 43
135 134 143 145 140 138 129 125 119 115 111 109 104 101 99 94 88 85 85 84 78 73 69 66 64 62 56 52 50 47 35 24 21 59 98 68 53 46 52 47 42 48 47
136 139 147 145 142 129 126 121 118 116 111 106 104 102 99 94 91 92 93 86 80 74 69 67 63 59 55 52 48 43 37 35 41 95 69 55 50 37 39 41 44 43 42
138 144 146 146 131 124 124 118 118 117 113 114 109 106 99 96 94 97 95 89 83 78 74 69 67 60 55 51 47 44 36 34 35 77 73 47 54 37 33 32 32 33 36
146 143 143 140 127 131 125 124 123 122 123 116 114 108 105 102 99 98 94 88 82 77 69 66 61 57 52 45 40 46 37 24 25 50 61 54 52 39 27 24 16 21 26
144 139 137 133 136 126 127 127 122 126 125 118 114 112 109 105 100 97 93 88 81 74 68 60 57 55 46 36 35 33 31 24 15 24 58 47 35 25 19 14 9 12 15
137 138 135 134 130 127 127 122 126 131 124 119 115 114 108 104 99 96 90 84 76 73 65 56 49 47 38 33 26 34 27 20 11 25 33 32 22 14 13 4 357 2 8
129 136 144 137 135 127 120 126 132 130 122 120 115 115 113 105 104 92 76 76 70 68 61 47 41 33 10 32 29 27 22 15 12 10 3 12 1 2 6 3 2 1 357
147 164 146 141 128 122 125 130 131 131 124 123 120 125 122 114 116 95 76 74 73 66 45 30 35 38 25 7 8 13 11 4 2 2 348 353 347 350 6 4 4 5 356
136 146 150 136 126 122 129 131 135 132 128 127 117 104 118 122 117 4 61 68 69 38 37 31 25 25 18 14 2 4 1 358 353 350 338 338 345 344 357 10 10 12 8
146 144 133 132 135 135 139 141 144 146 133 125 136 125 136 150 134 269 56 84 24 22 40 7 16 13 10 4 357 353 353 352 343 342 325 334 343 340 347 17 14 15 17
123 120 126 131 141 133 143 159 162 137 133 140 152 146 112 157 159 155 74 86 37 53 12 17 16 14 357 354 349 348 348 345 340 332 327 332 335 336 347 4 20 13 8
129 130 135 144 137 148 159 122 123 135 120 135 150 165 165 148 134 112 98 35 26 10 38 17 351 351 351 351 347 349 345 341 335 334 331 331 329 329 352 7 15 17 4
139 141 146 149 153 156 137 128 123 121 120 144 168 216 163 85 42 26 133 141 128 13 8 14 5 350 348 345 342 340 334 335 334 329 335 328 320 315 354 9 22 15 1
147 143 154 156 162 144 134 129 137 137 146 159 161 143 260 208 173 183 147 215 314 338 20 360 355 342 340 338 338 330 326 335 330 324 328 312 295 333 343 359 358 356 351
145 155 152 155 150 134 134 146 152 155 144 108 130 141 191 171 170 188 153 323 14 28 356 349 350 344 337 335 335 327 334 332 325 318 315 319 296 309 320 328 353 359 350
147 152 154 154 141 147 154 156 151 111 121 86 104 87 161 164 140 104 66 59 61 347 350 355 338 342 342 338 333 330 332 325 316 316 313 299 305 314 338 322 328 343 344
151 152 158 149 155 159 168 156 166 173 321 150 112 118 128 120 107 112 141 291 39 342 321 331 332 337 337 338 335 330 325 324 317 321 302 308 352 346 333 337 341 338 335
147 149 163 162 167 170 177 180 157 138 127 132 136 138 124 145 136 147 108 53 350 345 355 334 326 335 335 338 344 329 327 315 332 330 343 347 342 342 334 341 338 330 328
151 160 164 166 181 184 190 191 173 148 151 148 150 143 159 143 150 140 141 346 355 329 324 327 333 325 324 338 327 325 325 316 310 331 332 336 330 338 337 324 322 322 331
153 158 160 168 183 198 205 161 150 150 145 144 150 163 162 157 160 176 207 272 306 315 323 322 319 307 332 323 315 322 314 298 324 321 322 323 329 333 331 330 329 331 329
149 161 170 175 190 204 174 167 162 166 174 193 184 172 159 165 186 208 255 286 292 305 307 306 303 305 306 297 304 306 310 316 311 320 316 319 326 327 323 333 336 331 324
158 162 181 192 198 183 169 172 180 190 135 127 121 135 153 195 230 239 253 275 295 303 304 301 297 291 283 301 309 307 298 304 304 322 314 318 311 309 317 329 331 326 322
176 190 196 198 166 156 178 177 177 179 141 148 162 161 198 187 300 315 316 326 325 324 316 312 311 300 294 290 295 296 292 303 313 307 303 310 310 308 312 319 315 313 315